sat.trackr.live / text

‹ back to catalog

STARLINK-32313

NORAD 61527 · 2024-183U

PAYLOAD ACTIVE UNKNOWN

§ Identity

Operator
Country
US
Launch date
2024-10-15
Launch site
AFETR
Launch vehicle
Mass (kg)
RCS (m²)

Purposes: comms

External: N2YO · Heavens-Above · Gunter

§ Orbital elements

Epoch: 2026-05-25T00:14:47.505120Z

Period
94.11 min
Inclination
53.1602°
Eccentricity
0.0001418
Mean motion
15.30193400 rev/d
Perigee alt
474.3 km
Apogee alt
476.2 km
Semi-major
6,853.4 km
B*
4.2929e-5
RAAN
148.2044°
Arg perigee
86.1869°
Mean anomaly
273.9294°
Rev number
9,133

§ Raw data

STARLINK-323131 61527U 24183U   26145.01027205  .00000912  00000+0  42929-4 0  99952 61527  53.1602 148.2044 0001418  86.1869 273.9294 15.30193400 91333

JSON: /api/v1/satellites/61527 · /tle

For live sub-satellite position, see the globe view (requires WebGL).

§ Visibility from observer

Set your observer location to see the next 7 days of passes ≥ 10°. The values pass through the URL so the page stays shareable.

No JS? Fill the form by hand. The geolocation button needs JavaScript.